Regional Weather Roundup
Issued by NWS Northern Indiana

Home | Current Version | Previous Version | Graphics & Text | Print | Product List | Glossary On
Versions: 1 2 3 4 5 6 7 8 9 10 11 12 13 14 15 16 17 18 19 20 21 22 23 24 25 26 27 28 29 30 31 32 33 34 35 36 37 38 39 40 41 42 43 44 45 46 47 48 49 50
000
ASUS43 KIWX 280510
RWRIWX

KIWX WEATHER ROUNDUP
NATIONAL WEATHER SERVICE NORTHERN INDIANA
100 AM EDT MON JUL 28 2014

NOTE: "FAIR" INDICATES FEW OR NO CLOUDS BELOW 12,000 FEET WITH NO
SIGNIFICANT WEATHER AND/OR OBSTRUCTIONS TO VISIBILITY.

* THESE STATIONS ARE NOT UNDER NWS QUALITY CONTROL. THEY ALSO MAY NOT
  REPORT WEATHER SUCH AS PRECIPITATION OR FOG.

INZ001>027-280600-
NORTHERN INDIANA

CITY           SKY/WX    TMP DP  RH WIND       PRES   REMARKS
GARY*          CLOUDY    65  60  84 N16G29    29.90S
VALPARAISO     CLOUDY    63  58  83 N14G25    29.88R
MICHIGAN CITY* CLOUDY    63  54  72 N16G25    29.87S
LAPORTE*       CLOUDY    63  58  85 N14G21    29.87S
KNOX*          CLOUDY    64  58  81 NW15G22   29.85S
SOUTH BEND     CLOUDY    63  57  81 NW20G26   29.84S
GOSHEN         CLOUDY    65  59  81 NW13      29.81S
MONTICELLO*    MOCLDY    65  59  82 N7        29.84F
LOGANSPORT*    MOCLDY    64  55  72 NW8       29.84F
ROCHESTER*     CLOUDY    64  59  82 NW15      29.84S
WARSAW*        CLOUDY    63  59  88 NW9       29.82S
ANGOLA*        MOCLDY    63  54  72 NW10      29.78F
FORT WAYNE     PTCLDY    63  58  83 W10       29.79S
HUNTINGTON*    CLEAR     63  57  81 W6        29.80S
PERU/GRISSOM   MOCLDY    66  62  88 NW13      29.83S
MARION*        CLOUDY    64  58  83 NW9       29.83R

$$
INZ028>050-280600-
CENTRAL INDIANA

CITY           SKY/WX    TMP DP  RH WIND       PRES   REMARKS
LAFAYETTE      CLEAR     63  58  83 W8        29.85S
KOKOMO*        MOCLDY    64  57  77 NW12G17   29.83S
MUNCIE*        CLEAR     65  58  78 NW10      29.81S
INDIANAPOLIS   CLEAR     67  57  70 W13       29.84S

$$
MIZ043>046-050>051-056>058-064>065-071>073-077>080-280600-
SOUTHWEST LOWER MICHIGAN

CITY           SKY/WX    TMP DP  RH WIND       PRES   REMARKS
BATTLE CREEK   CLOUDY    62  59  90 NW8       29.80R FOG
BENTON HARBOR  CLOUDY    62  58  86 VRB7      29.83R
COLDWATER*     CLOUDY    64  60  87 NW8       29.78S
HILLSDALE*     MOCLDY    63  63  98 NW9       29.77R
HOLLAND        MOCLDY    63  60  90 NW9       29.83R
GRAND RAPIDS   PTCLDY    65  62  90 NW9       29.80S
KALAMAZOO      CLOUDY    63  58  83 NW10      29.81R
STURGIS*       CLOUDY    63  59  88 NW13G18   29.80R
THREE RIVERS*  CLOUDY    64  60  86 NW12G21   29.80S

$$
OHZ001>008-015>018-024>025-280600-
NORTHWEST OHIO

CITY           SKY/WX    TMP DP  RH WIND       PRES   REMARKS
WAUSEON*       FAIR      61  59  94 NW3       29.74S
DEFIANCE       CLOUDY    64  59  83 VRB6      29.75S
FINDLAY        PTCLDY    64  61  90 W9        29.72F
TOLEDO EXPRESS CLOUDY    63  57  81 NW6       29.74R
TOLEDO METCALF CLOUDY    65  56  72 W8        29.73R
LIMA           CLEAR     65  62  90 W9        29.75F

$$
&&



USA.gov is the U.S. government's official web portal to all federal, state and local government web resources and services.